Powrót do katalogu

STARLINK-30457

AktywnyŁącznośćVLEO
NORAD 57900·PAYLOAD·🇺🇸 United States

Wystrzelony Sep 20, 2023 z Cape Canaveral Space Force Station

Loading…

Następne Przeloty (najbliższe 24 godziny)

TLE

ŚwieżeSource: CelesTrak SupGP

Epoka: Sep 15, 2026, 02:21 UTC

1 57900C 23146K   26258.09840278  .00029511  00000+0  10691-2 0  2582
2 57900  43.0031 324.8620 0001872 260.2927 323.4211 15.27557147    16

Śledź STARLINK-30457 w czasie rzeczywistym z AllMySat

Download on the App Store